User: anonymous   Login
Location: Unspecified
(0.0000°N, 0.0000°E)
Time: 07:17:01
(UTC+00:00)
Language:

M3MSAT - Orbit

View from above orbital plane
View from above orbital plane
View from above satellite
View from above satellite

Ground track
Ground track

The orbit data is extracted from the following two-line orbital elements,

1 41605U 16040G   24106.81809890  .00018939  00000-0  55188-3 0  9993
2 41605  97.1298 134.4073 0007160 293.1344  66.9145 15.35398934434424
Epoch (UTC): 15 April 2024 19:38:03
Eccentricity: 0.0007160
inclination: 97.1298°
perigee height: 455 km
apogee height: 464 km
right ascension of ascending node: 134.4073°
argument of perigee: 293.1344°
revolutions per day: 15.35398934
mean anomaly at epoch: 66.9145°
orbit number at epoch: 43442

The dashed part of the orbit path shows where the satellite is in the earth's shadow,  

DLR